Temperature
20 19 19 19 19 20 20 20 20 20 20 19 19 19 19 19 19 19 19 19 18 18 18 18 18 18 18 18 18 18 18 17 17 17 17 17 17 17 17 17 17 16 17
21 20 20 19 20 20 20 20 20 20 20 19 19 19 19 19 19 19 18 18 18 18 18 18 18 18 18 18 18 18 18 17 17 17 17 17 17 17 17 17 17 17 16
21 20 20 20 20 20 20 20 20 20 19 19 19 19 19 19 19 19 18 18 18 18 18 18 18 18 18 18 18 17 17 17 17 17 17 17 17 17 17 17 17 17 16
21 20 20 20 20 20 20 20 20 20 19 19 19 19 19 19 18 18 18 18 18 18 18 18 18 18 18 17 17 17 17 17 17 17 17 17 17 17 17 17 17 16 16
21 20 20 20 20 20 20 20 20 20 19 19 19 19 19 18 18 18 18 18 18 18 18 18 18 18 18 17 17 17 17 17 17 17 17 17 17 17 17 17 17 16 16
21 20 20 20 20 20 20 20 19 19 19 19 19 19 18 18 18 18 18 18 18 18 18 18 17 17 17 17 17 17 17 17 17 17 17 17 17 17 17 17 16 16 16
21 20 20 20 20 20 20 19 19 19 19 19 19 18 18 18 18 18 18 18 18 18 18 18 17 17 17 17 17 17 17 17 17 17 17 17 17 17 17 17 17 16 16
21 20 20 20 20 19 19 19 19 19 19 19 18 18 18 18 18 18 18 18 18 18 18 18 18 17 17 17 17 17 17 17 17 17 17 17 17 17 17 17 17 16 16
20 20 19 19 19 19 19 19 19 19 19 19 18 18 18 18 18 18 18 18 18 18 18 18 17 17 17 17 17 17 17 17 17 17 17 17 17 17 17 17 17 16 16
20 20 19 19 19 19 19 19 19 19 18 18 18 18 18 18 18 18 18 18 18 18 18 17 17 17 17 17 17 17 17 17 17 17 17 17 17 17 17 17 17 16 16
19 19 19 19 19 19 19 19 19 18 18 18 18 18 18 18 18 18 18 18 18 18 17 17 17 17 17 17 17 17 17 17 17 17 17 17 17 17 17 17 17 16 16
19 19 19 19 19 19 19 19 18 18 18 18 18 18 18 18 18 18 18 18 18 17 17 17 17 17 17 17 17 17 17 17 17 17 17 17 17 17 17 17 17 16 16
19 18 18 19 19 19 19 18 18 18 18 18 18 18 18 18 18 18 18 18 17 17 17 17 17 17 17 17 17 17 17 17 17 17 17 17 17 17 17 17 17 16 16
19 19 19 19 18 18 18 18 18 18 18 18 18 18 18 18 18 18 18 18 18 17 17 17 17 17 17 17 17 17 17 17 17 17 17 17 17 17 17 17 17 16 16
19 19 19 18 18 18 18 18 18 18 18 18 18 18 18 18 18 18 18 18 18 17 17 17 17 17 17 17 17 17 17 17 17 17 17 17 17 17 17 17 17 17 16
19 19 19 18 18 18 18 18 18 18 18 18 18 18 18 18 18 18 18 18 17 17 17 17 17 17 17 17 17 17 17 17 17 17 17 17 17 17 17 17 17 16 16
20 19 19 18 18 18 18 18 18 18 18 18 18 18 18 18 17 17 18 17 17 17 17 17 17 17 17 17 17 17 17 17 17 17 17 17 17 17 17 16 16 16 16
20 19 19 18 18 18 18 18 18 18 18 18 18 18 18 17 17 17 17 17 17 17 17 17 17 17 17 17 17 17 17 17 17 17 17 17 17 17 16 16 16 16 16
20 19 18 18 18 18 18 18 18 18 18 18 18 18 18 17 17 17 17 17 17 17 17 17 17 17 17 17 17 17 17 17 17 17 17 16 16 16 16 16 16 16 16
19 19 18 18 18 18 17 17 17 17 18 18 18 18 17 17 17 17 17 17 17 17 17 17 17 17 17 17 17 17 17 17 17 17 16 16 16 16 16 16 16 16 16
19 18 18 18 18 17 17 17 17 17 18 18 18 18 17 17 17 17 17 17 17 17 17 17 17 17 17 17 17 17 17 17 17 16 16 16 16 16 16 16 16 16 16
19 18 18 17 17 17 17 18 18 18 18 18 18 17 17 17 17 17 17 17 17 17 17 17 17 17 17 17 17 17 17 17 17 17 17 17 16 16 16 16 16 16 16
18 18 18 18 17 17 17 17 17 17 17 17 17 17 17 17 17 17 17 17 17 17 17 17 17 17 17 17 17 17 17 17 17 17 17 17 17 17 16 16 16 16 16
19 18 18 18 17 17 17 17 17 18 17 18 18 17 17 17 17 17 17 17 17 17 17 17 17 17 17 17 17 17 17 17 17 17 17 17 17 17 17 17 17 16 16
19 18 18 18 18 17 17 17 17 17 18 18 17 17 17 17 17 17 17 17 17 17 17 17 17 17 16 16 17 17 17 17 17 17 17 17 17 17 17 17 17 17 17
19 18 18 18 17 17 17 17 17 17 17 17 17 17 17 17 17 17 16 16 16 16 16 16 16 16 16 16 17 17 17 17 17 17 17 17 17 17 17 17 17 17 17
Wind_Speed
9 13 20 20 20 19 19 20 20 20 20 20 20 19 18 17 16 15 13 12 11 11 11 11 11 11 11 12 13 14 14 15 15 15 16 17 17 18 18 19 18 17 19
14 17 22 21 20 20 20 20 20 20 20 19 19 18 17 16 15 14 12 12 12 11 11 11 11 11 12 13 14 15 15 14 15 16 16 17 18 18 18 18 17 16 19
16 18 22 22 21 20 20 19 19 19 18 18 17 16 16 15 14 13 12 12 12 12 12 12 12 12 13 13 14 15 14 14 15 16 16 14 16 17 17 17 17 17 18
16 17 20 22 21 20 20 19 19 18 18 17 16 15 14 14 13 12 12 11 11 11 12 12 12 12 13 13 14 14 14 14 15 16 13 12 13 16 16 17 17 17 17
14 17 21 23 22 21 20 19 18 18 17 16 15 15 14 13 12 12 11 11 11 11 11 11 12 12 13 13 13 13 14 14 15 13 11 11 12 15 16 16 16 16 16
13 16 21 23 22 21 20 19 18 17 16 15 15 14 13 12 12 12 11 11 11 11 11 11 12 12 12 12 12 12 13 14 13 11 11 11 12 14 15 15 15 15 15
14 14 20 23 22 21 20 19 18 17 16 15 14 13 13 12 11 11 11 11 11 11 11 11 11 11 11 11 11 11 13 14 12 11 11 11 12 14 14 14 14 14 14
15 13 19 23 22 21 20 19 18 17 16 15 14 13 12 12 11 11 11 10 10 10 10 10 11 11 10 10 10 11 12 12 11 11 10 10 12 14 14 13 13 14 14
12 11 13 18 20 20 20 19 18 17 16 15 14 13 12 12 11 11 10 10 10 10 10 10 10 10 9 9 9 11 12 12 11 10 10 9 12 13 13 13 13 13 13
11 11 9 12 14 15 17 18 18 17 16 15 14 13 12 11 11 10 9 9 9 9 9 9 9 8 8 8 8 10 11 12 10 9 8 9 12 12 13 13 12 12 12
12 9 9 9 10 12 13 16 17 16 15 14 13 13 11 9 9 8 8 8 8 8 8 8 8 7 7 6 7 9 10 9 9 8 8 10 11 12 12 12 11 11 11
14 11 9 9 8 10 12 13 12 12 12 11 10 10 9 8 7 6 6 7 7 7 7 6 7 7 7 6 6 8 8 9 8 7 8 10 11 11 12 11 11 11 11
13 12 10 9 8 8 6 9 8 9 9 9 9 9 9 7 5 4 3 3 4 5 5 5 6 6 6 5 5 6 7 7 7 7 8 10 11 11 11 11 11 11 10
13 12 11 10 8 7 7 7 7 6 7 6 8 9 8 5 3 3 2 2 3 4 4 4 4 4 4 5 5 5 6 6 6 6 7 10 10 11 11 10 10 11 10
12 12 11 10 9 7 6 6 7 6 6 7 7 8 8 5 3 3 3 3 3 3 3 3 2 2 3 3 4 5 5 6 6 6 6 9 10 10 10 10 10 10 10
13 12 11 10 9 7 6 5 5 7 7 7 7 8 9 7 5 4 3 3 3 4 3 3 2 2 2 2 3 4 4 5 5 6 5 7 9 10 10 10 10 10 10
12 11 11 11 9 8 7 6 6 7 8 7 7 9 9 8 7 6 4 3 4 5 4 3 3 3 2 2 2 2 3 4 5 5 5 5 7 9 10 10 10 10 11
10 11 12 12 11 9 7 6 5 7 7 7 8 8 9 10 9 7 4 3 5 5 4 3 2 2 2 2 1 1 1 2 3 4 5 5 6 7 9 10 11 11 11
11 12 12 10 10 9 7 5 4 6 6 7 8 8 9 10 10 8 5 4 5 4 3 3 2 2 2 2 2 1 1 1 1 3 4 5 6 6 7 9 11 12 11
10 11 10 9 9 8 6 5 3 4 4 5 7 8 9 9 10 8 5 5 5 4 3 2 3 2 2 2 2 2 1 0 1 1 3 4 5 7 7 7 8 9 11
9 10 11 10 9 8 6 6 5 5 4 4 5 8 10 10 10 8 5 5 4 4 4 4 3 3 2 2 3 2 2 1 0 1 2 3 4 6 7 7 8 8 9
10 9 9 9 10 9 8 6 4 4 3 3 3 5 8 10 10 8 6 5 5 4 4 4 3 3 2 2 3 2 1 2 2 1 2 3 4 5 6 8 8 9 9
10 11 10 10 10 9 8 5 5 4 3 2 3 3 5 8 9 8 8 6 5 5 5 4 4 5 3 1 1 3 3 3 1 2 1 2 3 3 5 6 8 9 10
10 10 10 11 11 10 10 9 10 7 6 5 4 4 4 6 8 9 9 7 5 4 4 4 4 3 4 3 1 1 1 2 2 0 2 1 2 4 5 5 7 9 10
8 9 10 10 10 10 10 10 10 7 5 4 4 5 4 4 6 7 8 7 6 4 4 4 4 4 3 4 3 2 2 1 1 2 1 2 1 2 3 4 5 6 8
6 7 8 9 9 9 10 10 10 10 8 8 7 6 5 3 3 5 7 6 6 5 5 4 4 5 4 4 3 3 3 2 2 2 2 1 1 2 1 1 2 4 6
Wind_Direction
154 154 149 144 139 134 129 125 124 123 123 123 124 125 126 127 126 125 123 121 118 116 113 111 113 114 114 116 118 121 121 122 123 122 120 118 118 116 115 114 113 113 114
148 152 151 147 142 137 132 129 127 126 126 126 126 126 126 126 126 124 122 121 119 116 113 112 112 113 114 115 117 119 123 124 124 123 121 120 119 117 117 117 117 119 118
145 150 151 149 145 139 135 133 131 130 129 129 128 128 129 128 126 124 122 119 118 116 115 115 115 115 116 118 119 121 122 124 123 121 116 114 118 120 120 121 120 119 119
146 149 151 151 147 143 139 137 135 134 132 132 131 131 131 130 129 126 123 120 119 117 117 117 119 119 120 120 122 123 123 123 120 116 112 117 122 123 123 122 122 121 120
144 148 154 152 149 147 144 142 140 138 137 135 135 134 134 133 131 129 126 123 122 119 118 118 120 121 122 123 124 124 124 121 117 114 113 115 121 126 124 124 124 123 123
144 149 156 154 152 150 148 147 145 143 141 140 139 138 137 137 135 133 128 125 122 119 117 117 118 122 123 125 127 127 127 121 113 114 114 118 125 129 127 125 126 125 124
146 150 157 156 155 153 152 151 149 147 145 144 144 141 140 140 136 133 129 127 125 122 120 118 119 122 126 129 130 130 129 123 119 119 120 122 130 132 130 128 128 128 126
149 150 157 158 158 157 157 155 154 152 150 148 147 144 142 141 137 133 131 129 128 124 121 119 121 124 126 128 129 131 133 130 127 127 127 130 137 135 133 131 129 129 130
147 148 153 159 160 161 160 159 158 156 154 152 150 148 146 143 141 138 135 134 131 127 124 123 124 125 126 130 134 139 142 136 130 132 134 135 139 138 136 135 133 133 133
147 148 148 151 156 160 162 163 162 161 159 155 154 154 152 149 147 143 138 139 134 131 129 127 126 124 126 130 138 145 144 131 133 134 136 143 144 144 142 140 139 138 137
155 150 148 147 151 153 159 167 165 165 164 161 160 160 152 144 142 142 148 148 140 137 133 129 128 125 122 124 132 135 130 129 138 138 145 153 154 152 148 147 145 144 144
163 160 155 153 152 154 165 164 161 162 162 157 157 151 141 138 141 146 163 158 150 144 136 129 124 117 107 104 115 123 128 134 140 147 158 162 161 158 155 153 152 152 152
164 165 164 158 156 158 155 151 150 150 149 148 150 146 143 140 139 138 151 145 136 130 110 104 99 99 108 113 115 127 139 141 148 157 169 171 170 166 161 160 161 160 158
166 169 165 164 162 159 152 149 146 145 146 148 153 155 151 149 148 150 151 139 122 117 114 107 103 107 114 128 136 137 143 150 156 163 177 180 177 171 168 169 168 167 165
170 170 170 167 167 161 152 157 155 152 157 161 164 170 171 168 169 170 169 163 154 144 138 128 116 114 121 132 146 147 147 155 162 168 179 187 183 180 178 176 176 176 173
174 171 167 168 167 161 159 158 158 160 162 168 178 186 188 184 179 172 171 175 173 170 163 153 136 126 127 135 141 147 154 165 168 173 182 191 188 187 188 187 187 188 186
172 169 169 171 166 166 165 168 165 167 167 175 187 193 193 191 185 176 170 179 182 174 159 138 116 110 120 130 131 135 149 171 176 177 179 187 192 195 197 199 198 198 197
168 170 172 177 175 174 171 167 163 169 174 180 185 191 196 193 185 173 171 183 177 164 154 139 128 119 118 126 136 138 142 163 180 180 182 190 195 200 208 212 210 210 209
173 172 174 177 176 173 165 164 165 166 174 178 177 184 191 189 184 174 173 176 165 154 153 157 130 134 140 140 139 116 95 160 190 195 197 203 205 208 213 220 220 221 221
171 171 172 175 170 161 156 154 156 157 169 173 175 182 182 182 179 170 165 164 159 148 152 145 126 109 118 133 118 90 59 63 190 211 220 217 215 216 218 224 228 231 232
170 172 172 171 169 161 166 171 174 182 177 176 181 182 178 175 173 165 160 153 157 161 166 154 128 120 110 121 101 65 27 23 243 238 228 222 221 221 220 225 228 233 240
179 176 172 170 173 176 180 177 167 151 161 172 171 172 175 171 170 167 156 158 158 150 147 152 137 126 113 122 127 111 46 352 340 278 235 227 230 226 230 232 232 234 236
183 179 179 175 176 179 175 157 138 118 104 136 164 170 174 169 167 162 163 158 160 159 163 166 155 144 141 121 123 140 148 211 282 317 276 243 231 225 234 235 235 238 238
187 180 177 178 176 179 177 173 171 175 179 187 174 169 161 163 164 165 163 160 159 156 159 168 162 148 141 147 124 86 128 150 149 322 326 295 251 237 239 239 241 241 240
179 177 178 174 175 177 178 179 178 177 176 161 152 153 155 156 165 166 162 158 154 153 158 157 153 149 147 152 155 145 121 88 103 140 263 319 304 260 247 242 246 247 244
164 166 165 168 177 179 180 180 179 174 168 162 164 167 165 158 158 163 157 154 154 154 159 162 157 150 147 142 145 149 151 152 165 157 179 246 287 309 309 277 260 259 254
Height
1506 1510 1514 1517 1520 1522 1524 1526 1528 1529 1531 1533 1534 1536 1537 1539 1540 1541 1542 1542 1543 1544 1545 1546 1546 1547 1548 1549 1550 1551 1552 1553 1554 1555 1556 1557 1559 1560 1561 1562 1563 1564 1566
1504 1510 1514 1517 1520 1523 1525 1527 1529 1531 1533 1534 1536 1537 1539 1540 1541 1542 1543 1544 1545 1545 1546 1547 1548 1548 1549 1550 1551 1552 1554 1555 1556 1557 1558 1560 1561 1562 1563 1565 1566 1567 1568
1505 1509 1514 1518 1521 1524 1526 1528 1530 1532 1534 1536 1537 1539 1540 1542 1543 1544 1545 1546 1546 1547 1548 1548 1549 1550 1551 1552 1553 1554 1556 1557 1558 1559 1560 1562 1563 1564 1566 1567 1568 1570 1571
1506 1510 1514 1518 1521 1524 1527 1529 1531 1533 1535 1537 1539 1540 1542 1543 1544 1545 1546 1547 1548 1548 1549 1550 1551 1551 1552 1554 1555 1556 1558 1559 1560 1561 1562 1564 1565 1567 1568 1569 1571 1572 1573
1507 1511 1515 1518 1522 1525 1528 1530 1532 1535 1536 1538 1540 1542 1543 1545 1546 1547 1548 1549 1549 1550 1551 1552 1552 1553 1554 1556 1557 1558 1560 1561 1562 1564 1565 1566 1567 1569 1570 1572 1573 1574 1575
1507 1512 1516 1519 1523 1526 1529 1531 1533 1536 1538 1540 1541 1543 1545 1546 1547 1548 1549 1550 1551 1552 1553 1553 1554 1555 1556 1557 1559 1560 1562 1563 1564 1566 1567 1568 1569 1571 1572 1574 1575 1576 1578
1507 1512 1516 1520 1523 1527 1530 1532 1535 1537 1539 1541 1543 1544 1546 1548 1549 1550 1551 1552 1553 1554 1554 1555 1556 1557 1558 1560 1561 1563 1564 1565 1566 1568 1569 1570 1572 1573 1574 1576 1577 1578 1580
1508 1512 1517 1521 1524 1527 1530 1533 1536 1538 1540 1542 1544 1546 1547 1549 1550 1551 1552 1553 1554 1555 1556 1557 1558 1559 1560 1562 1563 1564 1565 1567 1568 1569 1571 1572 1573 1575 1576 1578 1579 1580 1582
1509 1513 1517 1521 1524 1528 1531 1534 1536 1539 1541 1543 1545 1547 1548 1550 1551 1552 1554 1555 1556 1557 1558 1559 1560 1561 1562 1564 1565 1566 1567 1569 1570 1571 1572 1573 1575 1576 1578 1579 1580 1582 1583
1509 1513 1517 1521 1525 1528 1531 1534 1537 1539 1542 1544 1546 1548 1550 1551 1552 1554 1555 1556 1557 1558 1560 1561 1562 1563 1564 1566 1567 1568 1569 1570 1571 1572 1574 1575 1576 1578 1579 1581 1582 1583 1585
1510 1513 1517 1520 1525 1528 1532 1534 1537 1540 1542 1545 1547 1549 1550 1552 1553 1555 1556 1557 1559 1560 1561 1562 1563 1564 1566 1567 1568 1570 1571 1572 1573 1574 1575 1576 1578 1579 1580 1582 1583 1584 1586
1508 1512 1517 1521 1524 1528 1531 1535 1537 1540 1543 1545 1547 1549 1551 1553 1554 1556 1557 1559 1560 1561 1562 1563 1564 1566 1567 1568 1570 1571 1572 1573 1574 1575 1576 1577 1579 1580 1582 1583 1584 1585 1587
1507 1512 1516 1520 1524 1528 1531 1534 1537 1540 1543 1545 1548 1550 1552 1553 1555 1556 1558 1559 1561 1562 1563 1564 1566 1567 1568 1570 1571 1572 1573 1574 1575 1576 1577 1578 1580 1581 1582 1584 1585 1586 1588
1506 1510 1515 1519 1523 1527 1531 1534 1537 1540 1543 1545 1548 1550 1552 1554 1555 1557 1558 1560 1561 1563 1564 1565 1567 1568 1569 1570 1572 1573 1574 1575 1576 1577 1578 1579 1580 1581 1583 1584 1586 1587 1588
1505 1509 1514 1518 1522 1526 1530 1533 1537 1540 1543 1546 1548 1551 1553 1554 1556 1557 1559 1561 1562 1563 1565 1566 1567 1569 1570 1571 1572 1574 1575 1576 1577 1578 1579 1580 1581 1582 1583 1585 1586 1588 1589
1504 1508 1512 1517 1521 1525 1529 1533 1536 1540 1543 1546 1548 1551 1553 1555 1556 1558 1559 1561 1563 1564 1565 1567 1568 1569 1571 1572 1573 1574 1575 1576 1577 1578 1579 1580 1581 1582 1584 1585 1586 1588 1589
1503 1507 1511 1515 1520 1524 1529 1533 1536 1539 1542 1545 1548 1551 1553 1555 1556 1558 1559 1561 1563 1564 1565 1567 1568 1569 1571 1572 1573 1574 1575 1576 1577 1578 1579 1580 1581 1582 1584 1585 1586 1588 1589
1503 1506 1510 1514 1519 1523 1527 1532 1535 1539 1542 1545 1548 1550 1552 1554 1556 1557 1559 1561 1563 1564 1565 1567 1568 1569 1570 1571 1572 1574 1575 1576 1577 1578 1579 1580 1581 1582 1583 1584 1586 1587 1588
1502 1505 1509 1512 1517 1522 1526 1531 1535 1538 1541 1544 1547 1549 1552 1554 1555 1557 1559 1561 1562 1564 1565 1566 1567 1569 1570 1571 1572 1573 1574 1576 1577 1578 1579 1580 1581 1582 1583 1584 1585 1586 1587
1501 1504 1507 1511 1516 1521 1525 1529 1533 1537 1540 1543 1545 1548 1551 1553 1554 1556 1558 1560 1561 1563 1564 1565 1567 1568 1569 1571 1572 1573 1574 1575 1576 1577 1578 1579 1580 1581 1582 1583 1584 1585 1586
1499 1501 1504 1509 1513 1517 1522 1526 1530 1534 1538 1541 1544 1547 1549 1551 1553 1555 1557 1559 1560 1562 1564 1565 1566 1567 1569 1570 1571 1572 1573 1574 1575 1576 1577 1578 1579 1580 1581 1582 1583 1584 1585
1497 1499 1503 1505 1509 1514 1519 1523 1528 1532 1536 1540 1542 1545 1547 1550 1552 1554 1556 1558 1559 1561 1562 1564 1565 1566 1568 1569 1570 1572 1573 1575 1574 1575 1576 1577 1578 1579 1580 1581 1582 1583 1584
1494 1497 1501 1504 1508 1512 1517 1521 1526 1530 1534 1538 1541 1543 1545 1548 1550 1553 1554 1556 1558 1560 1561 1563 1564 1565 1567 1568 1570 1571 1572 1573 1573 1575 1575 1576 1577 1578 1579 1580 1581 1582 1582
1492 1495 1499 1501 1505 1509 1514 1518 1522 1526 1530 1534 1537 1541 1544 1546 1549 1551 1553 1555 1557 1558 1560 1562 1563 1565 1566 1567 1569 1570 1572 1572 1573 1573 1575 1575 1576 1577 1578 1579 1579 1580 1581
1490 1493 1496 1499 1503 1507 1511 1515 1519 1524 1528 1532 1535 1538 1541 1544 1547 1549 1551 1553 1555 1557 1559 1561 1562 1564 1565 1566 1568 1569 1570 1571 1572 1573 1574 1575 1575 1576 1577 1577 1578 1579 1579
1488 1491 1494 1498 1501 1505 1509 1513 1517 1521 1525 1529 1532 1535 1538 1541 1544 1547 1549 1551 1553 1555 1557 1559 1561 1562 1564 1565 1567 1568 1569 1571 1571 1572 1573 1574 1574 1575 1576 1576 1576 1577 1577